Hourly Data Report for October 06, 2017

All times are specified in Local Standard Time (LST). Add 1 hour to adjust for Daylight Saving Time where and when it is observed.

KAMLOOPS A
BRITISH COLUMBIA

50°42'09.000" N
120°26'55.000" W
345.30 m
1163781
71887
YKA

Download Data

Hourly Data (October 2017)
Hourly Data Report for October 6, 2017
Temp Definition
°C
Dew Point Temp Definition
°C
Rel Hum Definition
%
Wind Dir Definition
10's deg

Wind Spd Definition
km/h
Visibility Definition
km
Stn Press Definition
kPa
Hmdx Definition


Wind Chill Definition


Weather Definition


TIME
00:00 Legend Double Dagger 4.4 1.4 81 23 6 64.4 97.48     LegendNANA
01:00 Legend Double Dagger 3.6 -0.4 75 8 4 64.4 97.45     Mainly Clear
02:00 Legend Double Dagger 4.7 1.9 82 36 3 64.4 97.39     LegendNANA
03:00 Legend Double Dagger 4.2 1.5 82 19 5 64.4 97.29     LegendNANA
04:00 Legend Double Dagger 4.5 1.0 78 7 4 64.4 97.28     Mostly Cloudy
05:00 Legend Double Dagger 4.8 1.0 76 11 9 64.4 97.20     LegendNANA
06:00 Legend Double Dagger 5.3 1.2 75 4 4 64.4 97.14     LegendNANA
07:00 Legend Double Dagger 5.4 2.0 79 36 1 64.4 97.06     Cloudy
08:00 Legend Double Dagger 5.7 1.4 74 36 3 64.4 97.06     LegendNANA
09:00 Legend Double Dagger 6.7 2.2 73 22 5 64.4 96.97     LegendNANA
10:00 Legend Double Dagger 8.4 2.5 66 14 6 64.4 96.84     Mostly Cloudy
11:00 Legend Double Dagger 9.4 3.2 65 20 12 64.4 96.69     LegendNANA
12:00 Legend Double Dagger 17.0 -0.3 31 23 22 64.4 96.56     LegendNANA
13:00 Legend Double Dagger 17.3 1.2 34 25 32 64.4 96.45     Mostly Cloudy
14:00 Legend Double Dagger 16.7 2.1 37 23 28 64.4 96.37     LegendNANA
15:00 Legend Double Dagger 17.5 2.5 36 25 26 64.4 96.35     LegendNANA
16:00 Legend Double Dagger 16.9 2.2 37 22 38 64.4 96.21     Mainly Clear
17:00 Legend Double Dagger 16.0 2.1 39 20 31 64.4 96.20     LegendNANA
18:00 Legend Double Dagger 15.8 1.9 39 21 15 64.4 96.22     LegendNANA
19:00 Legend Double Dagger 13.5 1.6 44 28 8 64.4 96.25     Mainly Clear
20:00 Legend Double Dagger 14.3 2.6 45 34 15 64.4 96.36     LegendNANA
21:00 Legend Double Dagger 9.4 5.3 76 13 7 48.3 96.51     Rain,Rain Showers
22:00 Legend Double Dagger 9.2 6.0 80 18 9 64.4 96.55     Mostly Cloudy
23:00 Legend Double Dagger 8.3 6.7 90 35 10 64.4 96.54     Rain

Notes on Data Quality.

Legend

  • E = Estimated
  • M = Missing
  • NA = Not Available
  • ‡ = Partner data that is not subject to review by the National Climate Archives
Date modified: